Watertown, NY
on Saturday, December 9, 2017

Saturday
       
Previous Day Next Day
Daily Summary
 ActualAverageRecord
Temperature
Mean Temperature °F °C 29°F -2°C  
Max Temperature 38°F 3°C 37°F 3°C 63°F 17°C (1966)
Min Temperature 22°F -6°C 21°F -6°C -8°F -22°C (2000)
Degree Days
Heating Degree Days 35 36  
Month to date heating degree days 260 310  
Since 1 July heating degree days 1619 1909  
Cooling Degree Days 0 0  
Month to date cooling degree days 0 0  
Year to date cooling degree days 389 362  
Moisture
Dew Point 19°F -7°C   
Average Humidity 70    
Maximum Humidity 92    
Minimum Humidity 48    
Precipitation
Precipitation T in / T cm 0.11 in / 2.79 cm 1.17 in / 2.97 cm (1975)
Month to date precipitation 0.82 0.99  
Year to date precipitation 47.71 33.92  
Wind
Wind Speed 5 mph / 7 km/h   
Max Wind Speed 10 mph / 16 km/h   
Max Gust Speed 17 mph / 27 km/h   
Visibility 10 miles / 16 kilometers   
Events Snow   

Key: T is trace of precipitation, MM is missing value
Source: NWS Daily Summary
Time(EST)TemperatureDew PointHumidity Pressure Visibility Wind DirectionWind SpeedGust SpeedPrecipitationEvents Conditions
12:56 AM 30.0°F -1.1°C 19.0°F -7.2°C 64% 29.90 in / 1012.3 hPa 10.0 miles / 16.1 kilometers South 6.9 mph / 11.1 km/h - N/A   Overcast
1:56 AM 30.0°F -1.1°C 18.0°F -7.8°C 61% 29.90 in / 1012.4 hPa 10.0 miles / 16.1 kilometers South 6.9 mph / 11.1 km/h - N/A   Overcast
2:56 AM 30.0°F -1.1°C 19.0°F -7.2°C 64% 29.91 in / 1012.9 hPa 10.0 miles / 16.1 kilometers South 6.9 mph / 11.1 km/h - N/A   Overcast
3:56 AM 30.0°F -1.1°C 19.0°F -7.2°C 64% 29.91 in / 1012.6 hPa 9.0 miles / 14.5 kilometers South 5.8 mph / 9.3 km/h - 0.00 in / 0.0 cm   Overcast
4:56 AM 30.0°F -1.1°C 19.0°F -7.2°C 64% 29.91 in / 1012.7 hPa 8.0 miles / 12.9 kilometers South 4.6 mph / 7.4 km/h - 0.00 in / 0.0 cm Snow Light Snow
5:56 AM 28.9°F -1.7°C 18.0°F -7.8°C 64% 29.92 in / 1013.1 hPa 10.0 miles / 16.1 kilometers South 6.9 mph / 11.1 km/h - 0.00 in / 0.0 cm   Overcast
6:56 AM 28.0°F -2.2°C 18.0°F -7.8°C 66% 29.92 in / 1013.2 hPa 10.0 miles / 16.1 kilometers Variable 4.6 mph / 7.4 km/h - N/A   Overcast
7:56 AM 28.0°F -2.2°C 17.1°F -8.3°C 63% 29.92 in / 1013.1 hPa 10.0 miles / 16.1 kilometers South 9.2 mph / 14.8 km/h - N/A   Overcast
8:56 AM 28.9°F -1.7°C 18.0°F -7.8°C 64% 29.92 in / 1013.1 hPa 10.0 miles / 16.1 kilometers South 6.9 mph / 11.1 km/h - N/A   Overcast
9:56 AM 30.9°F -0.6°C 18.0°F -7.8°C 59% 29.91 in / 1012.9 hPa 10.0 miles / 16.1 kilometers South 5.8 mph / 9.3 km/h - N/A   Overcast
10:56 AM 32.0°F 0.0°C 18.0°F -7.8°C 56% 29.90 in / 1012.4 hPa 10.0 miles / 16.1 kilometers SSW 8.1 mph / 13.0 km/h - N/A   Partly Cloudy
11:56 AM 33.1°F 0.6°C 19.0°F -7.2°C 56% 29.86 in / 1011.2 hPa 10.0 miles / 16.1 kilometers SSE 4.6 mph / 7.4 km/h - N/A   Mostly Cloudy
12:56 PM 35.1°F 1.7°C 19.9°F -6.7°C 54% 29.84 in / 1010.3 hPa 10.0 miles / 16.1 kilometers Calm Calm - N/A   Partly Cloudy
1:56 PM 36.0°F 2.2°C 19.0°F -7.2°C 50% 29.81 in / 1009.5 hPa 10.0 miles / 16.1 kilometers Calm Calm - N/A   Clear
2:56 PM 37.0°F 2.8°C 19.9°F -6.7°C 50% 29.79 in / 1008.8 hPa 10.0 miles / 16.1 kilometers Calm Calm - N/A   Mostly Cloudy
3:56 PM 30.9°F -0.6°C 21.9°F -5.6°C 69% 29.78 in / 1008.4 hPa 10.0 miles / 16.1 kilometers ENE 6.9 mph / 11.1 km/h - N/A   Mostly Cloudy
4:56 PM 27.0°F -2.8°C 19.9°F -6.7°C 75% 29.79 in / 1008.7 hPa 10.0 miles / 16.1 kilometers ENE 4.6 mph / 7.4 km/h - N/A   Clear
5:56 PM 27.0°F -2.8°C 19.0°F -7.2°C 72% 29.78 in / 1008.5 hPa 9.0 miles / 14.5 kilometers East 4.6 mph / 7.4 km/h - N/A   Clear
6:56 PM 21.9°F -5.6°C 19.0°F -7.2°C 89% 29.78 in / 1008.5 hPa 10.0 miles / 16.1 kilometers East 4.6 mph / 7.4 km/h - N/A   Scattered Clouds
7:56 PM 25.0°F -3.9°C 19.0°F -7.2°C 78% 29.77 in / 1008.0 hPa 10.0 miles / 16.1 kilometers Calm Calm - N/A   Scattered Clouds
8:56 PM 24.1°F -4.4°C 21.0°F -6.1°C 88% 29.76 in / 1007.8 hPa 9.0 miles / 14.5 kilometers ESE 3.5 mph / 5.6 km/h - N/A   Scattered Clouds
9:56 PM 24.1°F -4.4°C 21.0°F -6.1°C 88% 29.75 in / 1007.5 hPa 10.0 miles / 16.1 kilometers Calm Calm - N/A   Clear
10:56 PM 25.0°F -3.9°C 19.9°F -6.7°C 81% 29.75 in / 1007.3 hPa 10.0 miles / 16.1 kilometers SE 3.5 mph / 5.6 km/h - N/A   Partly Cloudy
11:56 PM 28.0°F -2.2°C 19.9°F -6.7°C 72% 29.73 in / 1006.7 hPa 10.0 miles / 16.1 kilometers SSW 4.6 mph / 7.4 km/h - N/A   Overcast